This demonstration page uses our WeatherBlox Daily Observations layout. Learn more.

Left ArrowRight Arrow

Hourly Observations for July 12, 2020

Temp ( °F °C ) Dew Point ( °F °C ) Humidity (%) Winds ( mph kmh ) Pressure ( in mb ) Visibility ( mi km ) Precip ( " mm )
12:54 am 00:54 Clear 65 18.3 60 15.6 84 84 Calm 29.96 1015 10 16.0934 0 0
1:54 am 01:54 Clear 64 17.8 59 15 84 84 Calm 29.97 1015 10 16.0934 0 0
2:54 am 02:54 Clear 66 18.9 60 15.6 81 81 W 3 6 29.98 1015 10 16.0934 0 0
3:54 am 03:54 Clear 63 17.2 58 14.4 84 84 NW 3 6 29.98 1015 10 16.0934 0 0
4:54 am 04:54 Clear 63 17.2 58 14.4 84 84 Calm 30 1016 10 16.0934 0 0
5:54 am 05:54 Clear 64 17.8 58 14.4 81 81 W 3 6 30.03 1017 10 16.0934 0 0
6:54 am 06:54 Sunny 65 18.3 59 15 81 81 NNW 5 7 30.03 1017 10 16.0934 0 0
7:54 am 07:54 Sunny 68 20 60 15.6 76 76 NNE 6 9 30.03 1017 10 16.0934 0 0
8:54 am 08:54 Sunny 71 21.7 61 16.1 71 71 NNW 9 15 30.03 1017 10 16.0934 0 0
9:54 am 09:54 Sunny 75 23.9 62 16.7 64 64 N 8 13 30.01 1016 10 16.0934 0 0
10:54 am 10:54 Sunny 77 25 61 16.1 58 58 ENE 7 11 30.01 1016 10 16.0934 0 0
11:54 am 11:54 Sunny 78 25.6 60 15.6 54 54 VRB 3 6 30 1016 10 16.0934 0 0
12:54 pm 12:54 Sunny 80 26.7 60 15.6 51 51 Calm 29.99 1016 10 16.0934 0 0
1:54 pm 13:54 Sunny 82 27.8 61 16.1 49 49 WNW 9 15 30 1016 10 16.0934 0 0
2:54 pm 14:54 Sunny 84 28.9 62 16.7 48 48 NNW 13 20 29.98 1015 10 16.0934 0 0
3:54 pm 15:54 Sunny 84 28.9 62 16.7 48 48 VRB 5 7 29.94 1014 10 16.0934 0 0
4:54 pm 16:54 Sunny 84 28.9 63 17.2 49 49 ENE 9 15 29.92 1013 10 16.0934 0 0
5:54 pm 17:54 Sunny 83 28.3 63 17.2 51 51 E 10 17 29.91 1013 10 16.0934 0 0
6:54 pm 18:54 Sunny 81 27.2 61 16.1 51 51 ESE 9 15 29.89 1012 10 16.0934 0 0
7:54 pm 19:54 Sunny 79 26.1 62 16.7 56 56 SE 8 13 29.89 1012 10 16.0934 0 0
8:54 pm 20:54 Sunny 75 23.9 63 17.2 66 66 S 7 11 29.91 1013 10 16.0934 0 0
9:54 pm 21:54 Clear 74 23.3 63 17.2 69 69 SSE 5 7 29.92 1013 10 16.0934 0 0
10:54 pm 22:54 Clear 73 22.8 62 16.7 69 69 SSE 5 7 29.91 1013 10 16.0934 0 0
11:54 pm 23:54 Clear 71 21.7 63 17.2 76 76 S 7 11 29.93 1014 10 16.0934 0 0

Powered by AerisWeather